CDT,Max TemperatureF,Mean TemperatureF,Min TemperatureF,Max Dew PointF,MeanDew PointF,Min DewpointF,Max Humidity, Mean Humidity, Min Humidity, Max Sea Level PressureIn, Mean Sea Level PressureIn, Min Sea Level PressureIn, Max VisibilityMiles, Mean VisibilityMiles, Min VisibilityMiles, Max Wind SpeedMPH, Mean Wind SpeedMPH, Max Gust SpeedMPH,PrecipitationIn, CloudCover, Events, WindDirDegrees
2013-3-1,58,51,43,37,33,27,75,53,32,30.18,30.13,30.08,10,10,10,20,5,25,0.00,0,,302
2013-3-2,47,40,31,34,29,25,98,66,46,30.28,30.22,30.17,10,10,10,18,4,24,0.00,2,,334
2013-3-3,56,42,28,37,30,26,97,65,33,30.31,30.23,30.14,10,10,7,10,2,,0.00,0,,238
2013-3-4,70,54,39,58,48,36,95,74,50,30.13,30.03,29.93,10,10,10,22,6,32,0.00,4,,169
2013-3-5,74,63,52,62,51,35,92,65,32,30.21,30.04,29.92,10,10,7,15,7,24,0.00,4,Rain,257
2013-3-6,62,51,40,33,28,25,70,40,27,30.36,30.28,30.21,10,10,10,14,7,18,0.00,0,,328
2013-3-7,61,48,36,42,36,31,89,61,40,30.36,30.28,30.24,10,10,10,7,2,,0.00,0,,57
2013-3-8,69,54,39,49,43,39,100,67,33,30.31,30.23,30.16,10,8,2,8,1,,0.00,0,,100
2013-3-9,70,61,52,60,55,47,94,77,65,30.16,30.06,29.94,10,10,7,13,5,22,0.00,3,,120
2013-3-10,78,68,56,66,62,55,94,78,54,29.96,29.90,29.85,10,10,7,23,9,38,0.02,7,Rain-Thunderstorm,152
2013-3-11,59,52,44,56,43,35,96,75,41,30.05,29.97,29.90,10,9,4,21,9,26,0.36,4,Rain-Thunderstorm,310
2013-3-12,66,52,38,41,37,32,97,60,31,30.23,30.14,30.05,10,10,10,9,2,,0.00,0,,329
2013-3-13,67,54,40,41,30,16,93,43,16,30.41,30.34,30.24,10,10,10,14,5,23,0.00,0,,347
2013-3-14,67,52,38,44,33,23,81,48,27,30.46,30.37,30.30,10,10,10,8,2,,0.00,0,,116
2013-3-15,74,58,43,51,44,37,99,65,28,30.33,30.23,30.13,10,10,3,15,3,21,0.00,0,,194
2013-3-16,75,61,47,58,53,48,100,73,46,30.15,30.04,29.96,10,9,0,14,4,22,0.00,2,Fog,184
2013-3-17,77,66,56,66,61,55,97,82,55,29.97,29.90,29.81,10,9,5,15,4,24,0.00,4,Rain,162
2013-3-18,81,73,65,68,66,64,96,80,56,29.90,29.83,29.76,10,9,7,14,6,22,0.00,5,Rain,190
2013-3-19,75,65,56,66,52,43,91,64,43,30.03,29.97,29.91,10,10,10,12,6,18,0.00,2,,43
2013-3-20,71,62,52,58,39,25,94,48,20,30.18,30.07,29.98,10,10,7,16,5,22,0.01,2,Rain,357
2013-3-21,66,54,42,46,38,26,82,53,31,30.06,29.97,29.85,10,10,10,12,3,18,0.00,2,,97
2013-3-22,78,68,57,68,61,47,94,81,65,29.90,29.81,29.74,10,10,7,9,3,,0.00,7,Rain,132
2013-3-23,71,68,65,71,68,65,100,97,89,29.82,29.70,29.56,10,4,0,7,2,,0.02,8,Fog-Rain,74
2013-3-24,70,60,48,70,49,30,100,69,30,30.03,29.79,29.61,10,9,2,20,8,30,0.01,4,,305
2013-3-25,59,48,37,30,26,16,75,45,21,30.28,30.17,30.04,10,10,10,17,10,25,0.00,0,,326
2013-3-26,55,45,35,32,25,19,78,45,29,30.42,30.36,30.29,10,10,10,13,5,23,0.00,0,,336
2013-3-27,62,46,32,39,31,28,93,56,30,30.45,30.36,30.28,10,10,10,8,2,,0.00,0,,100
2013-3-28,70,52,36,45,40,36,99,65,30,30.37,30.30,30.23,10,10,5,9,1,,0.00,0,,129
2013-3-29,75,59,43,54,49,43,99,72,38,30.33,30.25,30.18,10,9,3,12,2,18,0.00,0,,191
2013-3-30,76,64,52,59,55,51,99,76,48,30.20,30.12,30.03,10,9,0,14,3,21,0.00,1,Fog,195
2013-3-31,77,66,55,66,60,56,100,91,60,30.05,29.98,29.91,10,6,0,28,3,36,0.72,6,Fog-Rain-Thunderstorm,209